,,PA_Meas_PMT16A,,PR_Meas_QMR101_102,,RH_Meas_QMH101,,SR_Meas_QMS101,,TA_Meas_QMH101,,GenWind,,GenWind,
time,status,PA,status,PR,status,RH,status,SR,status,TA,status,DirAvg,status,SpdAvg,
2016-10-06, 00:00:04,VALID,916.193,VALID,0,VALID,79.6113,VALID,68.5475,VALID,23.2698,VALID,45,VALID,0.703125,
2016-10-06, 14:04:04,VALID,917.619,VALID,0,INVALID,119.589,VALID,105.185,VALID,19.8423,VALID,320,VALID,0,
2016-10-06, 14:09:04,VALID,917.579,VALID,0,INVALID,119.703,VALID,115.714,VALID,19.8813,VALID,292,VALID,0,
2016-10-06, 14:16:04,VALID,917.604,VALID,0,INVALID,119.794,VALID,122.161,VALID,20.0374,VALID,330,VALID,0,
2016-10-06, 14:27:04,VALID,917.616,VALID,0,INVALID,119.238,VALID,159.228,VALID,20.2894,VALID,288,VALID,0,
2016-10-06, 14:29:04,VALID,917.636,VALID,0,INVALID,118.582,VALID,173.732,VALID,20.408,VALID,302,VALID,0,
2016-10-06, 14:30:04,VALID,917.604,VALID,0,INVALID,118.338,VALID,218.428,VALID,20.4275,VALID,284,VALID,0,
2016-10-06, 14:31:04,VALID,917.565,VALID,0,INVALID,118.384,VALID,244.106,VALID,20.504,VALID,322,VALID,0,
2016-10-06, 14:32:04,VALID,917.617,VALID,0,INVALID,117.767,VALID,225.626,VALID,20.582,VALID,353,VALID,0.779297,
2016-10-06, 14:33:04,VALID,917.575,VALID,0,INVALID,116.646,VALID,262.694,VALID,20.66,VALID,14,VALID,1.36016,
2016-10-06, 14:34:04,VALID,917.619,VALID,0,INVALID,116.585,VALID,266.669,VALID,20.8762,VALID,2,VALID,1.07187,
2016-10-06, 14:35:04,VALID,917.592,VALID,0,INVALID,116.036,VALID,240.561,VALID,20.9527,VALID,269,VALID,0,
2016-10-06, 14:36:04,VALID,917.615,VALID,0,INVALID,116.059,VALID,244.644,VALID,21.0892,VALID,269,VALID,0,
2016-10-06, 14:37:04,VALID,917.635,VALID,0,INVALID,115.533,VALID,264.95,VALID,21.1868,VALID,269,VALID,0,
2016-10-06, 14:38:04,VALID,917.642,VALID,0,INVALID,114.664,VALID,271.181,VALID,21.2648,VALID,298,VALID,0,
2016-10-06, 14:39:04,VALID,917.628,VALID,0,INVALID,115.823,VALID,289.124,VALID,21.2453,VALID,355,VALID,0,
2016-10-06, 14:40:04,VALID,917.667,VALID,0,INVALID,113.612,VALID,291.81,VALID,21.2843,VALID,341,VALID,0,
2016-10-06, 14:41:04,VALID,917.696,VALID,0,VALID,99.3102,VALID,311.579,VALID,21.3217,VALID,345,VALID,1.21836,
2016-10-06, 14:42:04,VALID,917.717,VALID,0,VALID,96.7716,VALID,277.091,VALID,21.3608,VALID,8,VALID,0,
2016-10-06, 14:43:04,VALID,917.725,VALID,0,INVALID,109.221,VALID,214.882,VALID,21.4388,VALID,337,VALID,0,
2016-10-06, 14:44:04,VALID,917.832,VALID,0,VALID,96.2761,VALID,203.171,VALID,21.4388,VALID,332,VALID,0,
2016-10-06, 14:45:04,VALID,917.768,VALID,0,VALID,104,VALID,210.8,VALID,21.4567,VALID,31,VALID,0,
2016-10-06, 14:46:04,VALID,917.79,VALID,0,VALID,104,VALID,208.114,VALID,21.5363,VALID,33,VALID,0,
2016-10-06, 14:47:04,VALID,917.814,VALID,0,INVALID,109.571,VALID,203.386,VALID,21.5949,VALID,317,VALID,0,
2016-10-06, 14:48:04,VALID,917.79,VALID,0,VALID,96.3981,VALID,212.519,VALID,21.5737,VALID,325,VALID,0,
2016-10-06, 14:49:04,VALID,918.325,VALID,0,VALID,92.2891,VALID,187.485,VALID,21.4762,VALID,329,VALID,0,
2016-10-06, 14:50:04,VALID,917.81,VALID,0,VALID,104,VALID,204.246,VALID,21.4372,VALID,349,VALID,0,
2016-10-06, 14:51:04,VALID,917.812,VALID,0,VALID,104,VALID,214.882,VALID,21.4388,VALID,35,VALID,0,
2016-10-06, 14:52:04,VALID,917.81,VALID,0,VALID,104,VALID,212.411,VALID,21.3786,VALID,13,VALID,0,
2016-10-06, 14:53:04,VALID,917.833,VALID,0,VALID,104,VALID,207.254,VALID,21.3608,VALID,355,VALID,0,
2016-10-06, 14:54:04,VALID,917.924,VALID,0,VALID,104,VALID,191.997,VALID,21.4193,VALID,23,VALID,0,
2016-10-06, 14:55:04,VALID,917.843,VALID,0,VALID,104,VALID,198.766,VALID,21.4957,VALID,23,VALID,0,
2016-10-06, 14:56:04,VALID,917.853,VALID,0,VALID,102.71,VALID,201.667,VALID,21.5932,VALID,22,VALID,0,
2016-10-06, 14:57:04,VALID,919.248,VALID,0,VALID,94.0577,VALID,191.138,VALID,21.6924,VALID,274,VALID,0,
2016-10-06, 14:58:04,VALID,918.167,VALID,0,VALID,93.4631,VALID,184.691,VALID,21.7705,VALID,274,VALID,0,
2016-10-06, 14:59:04,VALID,917.91,VALID,0,VALID,94.4313,VALID,182.972,VALID,21.7883,VALID,280,VALID,0,
2016-10-06, 15:00:04,VALID,917.918,VALID,0,VALID,91.5877,VALID,182.22,VALID,21.8079,VALID,49,VALID,0,
2016-10-06, 15:01:04,VALID,918.56,VALID,0,VALID,93.2954,VALID,167.071,VALID,21.7493,VALID,43,VALID,0,
2016-10-06, 15:02:04,VALID,919.702,VALID,0,VALID,98.2658,VALID,174.914,VALID,21.7298,VALID,19,VALID,0,
2016-10-06, 15:03:04,VALID,917.966,VALID,0,VALID,104,VALID,192.964,VALID,21.7103,VALID,19,VALID,0,
2016-10-06, 15:04:04,VALID,917.924,VALID,0,VALID,104,VALID,209.725,VALID,21.8079,VALID,30,VALID,0,
2016-10-06, 15:05:04,VALID,917.943,VALID,0,VALID,104,VALID,208.328,VALID,21.8664,VALID,13,VALID,0,
2016-10-06, 15:06:04,VALID,917.93,VALID,0,VALID,104,VALID,209.725,VALID,21.9444,VALID,35,VALID,0,
2016-10-06, 15:07:04,VALID,917.952,VALID,0,VALID,95.2012,VALID,207.469,VALID,21.9444,VALID,36,VALID,0,
2016-10-06, 15:08:04,VALID,917.931,VALID,0,VALID,97.2824,VALID,212.841,VALID,21.964,VALID,356,VALID,0,
2016-10-06, 15:09:04,VALID,917.912,VALID,0,VALID,100.027,VALID,209.94,VALID,21.9249,VALID,13,VALID,0,
2016-10-06, 15:10:04,VALID,917.922,VALID,0,VALID,97.6483,VALID,224.659,VALID,21.8859,VALID,8,VALID,0,
2016-10-06, 15:11:04,VALID,917.897,VALID,0,VALID,96.8403,VALID,214.453,VALID,21.8664,VALID,15,VALID,0,
2016-10-06, 15:12:04,VALID,917.909,VALID,0,VALID,99.1806,VALID,211.874,VALID,21.8257,VALID,28,VALID,0,
2016-10-06, 15:13:04,VALID,917.96,VALID,0,VALID,104,VALID,205.213,VALID,21.8274,VALID,39,VALID,0,
2016-10-06, 15:14:04,VALID,917.96,VALID,0,VALID,104,VALID,216.064,VALID,21.8079,VALID,39,VALID,0,
2016-10-06, 15:15:04,VALID,917.977,VALID,0,VALID,103.869,VALID,214.775,VALID,21.7883,VALID,64,VALID,0,
2016-10-06, 15:16:04,VALID,917.991,VALID,0,VALID,98.4717,VALID,203.708,VALID,21.7688,VALID,68,VALID,0,
2016-10-06, 15:17:04,VALID,917.982,VALID,0,VALID,104,VALID,234.866,VALID,21.7493,VALID,55,VALID,0,
2016-10-06, 15:18:04,VALID,917.984,VALID,0,VALID,99.943,VALID,227.668,VALID,21.7705,VALID,44,VALID,0,
2016-10-06, 15:19:04,VALID,917.967,VALID,0,VALID,104,VALID,233.685,VALID,21.7883,VALID,37,VALID,0,
2016-10-06, 15:20:04,VALID,917.96,VALID,0,VALID,101.75,VALID,265.487,VALID,21.7493,VALID,17,VALID,0,
2016-10-06, 15:21:04,VALID,917.98,VALID,0,VALID,102.344,VALID,255.817,VALID,21.7493,VALID,350,VALID,0,
2016-10-06, 15:22:04,VALID,918,VALID,0,VALID,104,VALID,232.288,VALID,21.8274,VALID,360,VALID,0,
2016-10-06, 15:23:04,VALID,918.006,VALID,0,INVALID,110.379,VALID,238.519,VALID,21.8647,VALID,349,VALID,0,
2016-10-06, 15:24:04,VALID,918.026,VALID,0,VALID,99.6838,VALID,265.165,VALID,21.9444,VALID,344,VALID,0,
2016-10-06, 15:25:04,VALID,917.997,VALID,0,VALID,102.649,VALID,264.95,VALID,22.003,VALID,343,VALID,0,
2016-10-06, 15:26:04,VALID,918.013,VALID,0,VALID,102.535,VALID,256.569,VALID,22.1591,VALID,11,VALID,0,
2016-10-06, 15:27:04,VALID,918,VALID,0,VALID,91.1684,VALID,326.406,VALID,22.2957,VALID,64,VALID,0,
2016-10-06, 15:28:04,VALID,918.012,VALID,0,VALID,86.4648,VALID,279.992,VALID,22.333,VALID,55,VALID,0,
2016-10-06, 15:29:04,VALID,918.024,VALID,0,VALID,87.776,VALID,277.735,VALID,22.3737,VALID,54,VALID,0,
2016-10-06, 15:30:04,VALID,918.037,VALID,0,VALID,85.3518,VALID,278.702,VALID,22.3525,VALID,64,VALID,0.166016,
2016-10-06, 15:31:04,VALID,918.037,VALID,0,VALID,86.7316,VALID,257.751,VALID,22.372,VALID,45,VALID,0,
2016-10-06, 15:32:04,VALID,918.05,VALID,0,VALID,84.1015,VALID,275.264,VALID,22.2957,VALID,45,VALID,0,
2016-10-06, 15:33:04,VALID,918.096,VALID,0,VALID,84.315,VALID,326.084,VALID,22.294,VALID,73,VALID,0,
2016-10-06, 15:34:04,VALID,918.064,VALID,0,VALID,86.6249,VALID,281.066,VALID,22.3135,VALID,24,VALID,0,
2016-10-06, 15:35:04,VALID,918.03,VALID,0,VALID,86.2894,VALID,303.306,VALID,22.3916,VALID,14,VALID,0,
2016-10-06, 15:36:04,VALID,918.046,VALID,0,VALID,85.1764,VALID,337.688,VALID,22.4891,VALID,73,VALID,0,
2016-10-06, 15:37:04,VALID,918.051,VALID,0,VALID,86.3123,VALID,332.315,VALID,22.585,VALID,29,VALID,0,
2016-10-06, 15:38:04,VALID,918.058,VALID,0,VALID,85.9845,VALID,455.765,VALID,22.8014,VALID,32,VALID,0,
2016-10-06, 15:39:04,VALID,918.037,VALID,0,VALID,82.0889,VALID,445.236,VALID,23.016,VALID,16,VALID,0,
2016-10-06, 15:40:04,VALID,918.05,VALID,0,VALID,80.488,VALID,423.318,VALID,23.1527,VALID,17,VALID,0,
2016-10-06, 15:41:04,VALID,918.062,VALID,0,VALID,80.1755,VALID,401.078,VALID,23.1331,VALID,53,VALID,0,
2016-10-06, 15:42:04,VALID,918.066,VALID,0,VALID,81.5934,VALID,420.74,VALID,23.2112,VALID,27,VALID,0,
2016-10-06, 15:43:04,VALID,918.085,VALID,0,VALID,82.1652,VALID,427.938,VALID,23.3851,VALID,353,VALID,0,
2016-10-06, 15:44:04,VALID,918.097,VALID,0,VALID,80.671,VALID,449.856,VALID,23.543,VALID,328,VALID,0,
2016-10-06, 15:45:04,VALID,918.109,VALID,0,VALID,78.7575,VALID,465.328,VALID,23.662,VALID,276,VALID,0,
2016-10-06, 15:46:04,VALID,918.113,VALID,0,VALID,75.8149,VALID,490.039,VALID,23.5626,VALID,304,VALID,0,
2016-10-06, 15:47:04,VALID,918.146,VALID,0,VALID,76.9813,VALID,474.997,VALID,23.5022,VALID,301,VALID,0,
2016-10-06, 15:48:04,VALID,918.167,VALID,0,VALID,79.7257,VALID,444.054,VALID,23.6797,VALID,20,VALID,0,
2016-10-06, 15:49:04,VALID,918.18,VALID,0,VALID,77.8198,VALID,390.763,VALID,23.8358,VALID,341,VALID,0,
2016-10-06, 15:50:04,VALID,918.179,VALID,0,VALID,78.2467,VALID,345.746,VALID,23.7968,VALID,359,VALID,0,
2016-10-06, 15:51:04,VALID,918.201,VALID,0,VALID,78.1324,VALID,331.886,VALID,23.8554,VALID,329,VALID,0,
2016-10-06, 15:52:04,VALID,918.208,VALID,0,VALID,77.2938,VALID,369.812,VALID,23.8536,VALID,244,VALID,0,
2016-10-06, 15:53:04,VALID,918.188,VALID,0,VALID,76.6763,VALID,402.904,VALID,23.9725,VALID,257,VALID,0,
2016-10-06, 15:54:04,VALID,918.179,VALID,0,VALID,75.0678,VALID,413.434,VALID,23.8926,VALID,345,VALID,0,
2016-10-06, 15:55:04,VALID,918.157,VALID,0,VALID,79.0853,VALID,499.386,VALID,23.9316,VALID,336,VALID,0,
2016-10-06, 15:56:04,VALID,918.199,VALID,0,VALID,76.7373,VALID,525.817,VALID,24.0878,VALID,281,VALID,0,
2016-10-06, 15:57:04,VALID,918.174,VALID,0,VALID,75.2279,VALID,503.792,VALID,24.1659,VALID,305,VALID,0,
2016-10-06, 15:58:04,VALID,918.193,VALID,0,VALID,73.9624,VALID,529.148,VALID,24.2245,VALID,269,VALID,0,
2016-10-06, 15:59:04,VALID,918.181,VALID,0,VALID,75.3346,VALID,508.089,VALID,24.2849,VALID,6,VALID,1.76289,
2016-10-06, 16:00:04,VALID,918.189,VALID,0,VALID,76.6077,VALID,493.692,VALID,24.363,VALID,2,VALID,0,
2016-10-06, 16:01:04,VALID,918.19,VALID,0,VALID,73.1009,VALID,526.462,VALID,24.3416,VALID,287,VALID,0.00117188,
2016-10-06, 16:02:04,VALID,918.188,VALID,0,VALID,74.1911,VALID,544.082,VALID,24.3221,VALID,10,VALID,0,
2016-10-06, 16:03:04,VALID,918.201,VALID,0,VALID,71.6906,VALID,541.826,VALID,24.3611,VALID,281,VALID,0,
2016-10-06, 16:04:04,VALID,918.224,VALID,0,VALID,72.1709,VALID,575.777,VALID,24.3416,VALID,287,VALID,0,
2016-10-06, 16:05:04,VALID,918.201,VALID,0,VALID,73.383,VALID,525.924,VALID,24.4587,VALID,20,VALID,0,
2016-10-06, 16:06:04,VALID,918.209,VALID,0,VALID,73.4135,VALID,504.651,VALID,24.5564,VALID,15,VALID,0.873438,
2016-10-06, 16:07:04,VALID,918.218,VALID,0,VALID,71.0426,VALID,507.982,VALID,24.6345,VALID,323,VALID,0.180469,
2016-10-06, 16:08:04,VALID,918.209,VALID,0,VALID,72.0794,VALID,479.295,VALID,24.6735,VALID,21,VALID,1.02539,
2016-10-06, 16:09:04,VALID,918.234,VALID,0,VALID,71.9422,VALID,428.153,VALID,24.7321,VALID,11,VALID,0.469531,
2016-10-06, 16:10:04,VALID,918.216,VALID,0,VALID,72.2776,VALID,459.311,VALID,24.7302,VALID,23,VALID,0,
2016-10-06, 16:11:04,VALID,918.259,VALID,0,VALID,70.5395,VALID,449.856,VALID,24.8278,VALID,342,VALID,0.00117188,
2016-10-06, 16:12:04,VALID,918.274,VALID,0,VALID,72.7198,VALID,526.032,VALID,24.7497,VALID,8,VALID,0,
2016-10-06, 16:13:04,VALID,918.251,VALID,0,VALID,70.0058,VALID,584.265,VALID,24.7497,VALID,263,VALID,0,
2016-10-06, 16:14:04,VALID,918.3,VALID,0,VALID,72.3386,VALID,623.159,VALID,24.8083,VALID,22,VALID,0.197266,
2016-10-06, 16:15:04,VALID,918.305,VALID,0,VALID,71.1493,VALID,627.994,VALID,24.8278,VALID,358,VALID,0.967969,
2016-10-06, 16:16:04,VALID,918.31,VALID,0,VALID,71.8202,VALID,452.435,VALID,24.9645,VALID,331,VALID,0,
2016-10-06, 16:17:04,VALID,918.348,VALID,0,VALID,70.0897,VALID,660.333,VALID,25.0817,VALID,344,VALID,0,
2016-10-06, 16:18:04,VALID,918.328,VALID,0,VALID,69.5789,VALID,678.491,VALID,25.1207,VALID,331,VALID,0,
2016-10-06, 16:19:04,VALID,918.349,VALID,0,VALID,70.8368,VALID,530.759,VALID,24.9859,VALID,1,VALID,0,
2016-10-06, 16:20:04,VALID,918.298,VALID,0,VALID,70.1431,VALID,587.273,VALID,25.0036,VALID,3,VALID,0.415625,
2016-10-06, 16:21:04,VALID,918.275,VALID,0,VALID,71.622,VALID,472.311,VALID,25.0817,VALID,16,VALID,1.37617,
2016-10-06, 16:22:04,VALID,918.277,VALID,0,VALID,68.6565,VALID,555.471,VALID,25.1402,VALID,358,VALID,0.682031,
2016-10-06, 16:23:04,VALID,918.298,VALID,0,VALID,69.861,VALID,512.924,VALID,25.1988,VALID,359,VALID,0,
2016-10-06, 16:24:04,VALID,918.239,VALID,0,VALID,69.4798,VALID,497.023,VALID,25.2769,VALID,29,VALID,0,
2016-10-06, 16:25:04,VALID,918.242,VALID,0,VALID,70.2574,VALID,491.651,VALID,25.3141,VALID,320,VALID,0,
2016-10-06, 16:26:04,VALID,918.247,VALID,0,VALID,69.3426,VALID,488.535,VALID,25.3355,VALID,242,VALID,0,
2016-10-06, 16:27:04,VALID,918.239,VALID,0,VALID,68.5345,VALID,316.307,VALID,25.3941,VALID,259,VALID,0,
2016-10-06, 16:28:04,VALID,918.272,VALID,0,VALID,68.2601,VALID,468.551,VALID,25.4898,VALID,10,VALID,0,
2016-10-06, 16:29:04,VALID,918.281,VALID,0,VALID,68.5345,VALID,325.654,VALID,25.4898,VALID,348,VALID,0,
2016-10-06, 16:30:04,VALID,918.294,VALID,0,VALID,68.9004,VALID,441.368,VALID,25.5874,VALID,26,VALID,0.00429688,
2016-10-06, 16:31:04,VALID,918.293,VALID,0,VALID,67.6959,VALID,381.631,VALID,25.4898,VALID,13,VALID,0.332031,
2016-10-06, 16:32:04,VALID,918.268,VALID,0,VALID,67.269,VALID,549.561,VALID,25.3531,VALID,23,VALID,0.131641,
2016-10-06, 16:33:04,VALID,918.337,VALID,0,VALID,70.5623,VALID,612.952,VALID,25.236,VALID,350,VALID,0,
2016-10-06, 16:34:04,VALID,918.271,VALID,0,VALID,69.0224,VALID,627.886,VALID,25.1169,VALID,350,VALID,0.493359,
2016-10-06, 16:35:04,VALID,918.262,VALID,0,VALID,70.326,VALID,611.448,VALID,25.0993,VALID,359,VALID,0.136328,
2016-10-06, 16:36:04,VALID,918.277,VALID,0,VALID,67.3986,VALID,586.736,VALID,25.2536,VALID,356,VALID,1.67539,
2016-10-06, 16:37:04,VALID,918.29,VALID,0,VALID,68.1457,VALID,578.678,VALID,25.1383,VALID,4,VALID,1.1625,
2016-10-06, 16:38:04,VALID,918.26,VALID,0,VALID,70.3565,VALID,573.843,VALID,25.1383,VALID,42,VALID,0.0105469,
2016-10-06, 16:39:04,VALID,918.246,VALID,0,VALID,69.3273,VALID,350.903,VALID,25.2945,VALID,8,VALID,0.589844,
2016-10-06, 16:40:04,VALID,918.271,VALID,0,VALID,67.8789,VALID,504.651,VALID,25.2731,VALID,32,VALID,0.342969,
2016-10-06, 16:41:04,VALID,918.274,VALID,0,VALID,69.8762,VALID,469.41,VALID,25.3141,VALID,339,VALID,0,
2016-10-06, 16:42:04,VALID,918.309,VALID,0,VALID,69.7619,VALID,458.666,VALID,25.3726,VALID,16,VALID,0.579297,
2016-10-06, 16:43:04,VALID,918.285,VALID,0,VALID,68.626,VALID,371.209,VALID,25.4117,VALID,169,VALID,0.181641,
2016-10-06, 16:44:04,VALID,918.292,VALID,0,VALID,67.1623,VALID,320.712,VALID,25.2926,VALID,241,VALID,0.129688,
2016-10-06, 16:45:04,VALID,918.284,VALID,0,VALID,69.3731,VALID,438.79,VALID,25.1774,VALID,307,VALID,0,
2016-10-06, 16:46:04,VALID,918.29,VALID,0,VALID,69.1673,VALID,327.91,VALID,25.2145,VALID,355,VALID,0.730078,
2016-10-06, 16:47:04,VALID,918.246,VALID,0,VALID,67.0479,VALID,346.498,VALID,25.195,VALID,17,VALID,3.92539,
2016-10-06, 16:48:04,VALID,918.248,VALID,0,VALID,69.4798,VALID,635.407,VALID,25.0974,VALID,19,VALID,1.33828,
2016-10-06, 16:49:04,VALID,918.28,VALID,0,VALID,68.6794,VALID,710.186,VALID,25.195,VALID,169,VALID,0,
2016-10-06, 16:50:04,VALID,918.287,VALID,0,VALID,67.9475,VALID,400.218,VALID,25.2731,VALID,164,VALID,0,
2016-10-06, 16:51:04,VALID,918.295,VALID,0,VALID,69.922,VALID,409.566,VALID,25.2145,VALID,309,VALID,0.0195313,
2016-10-06, 16:52:04,VALID,918.29,VALID,0,VALID,68.2677,VALID,330.489,VALID,25.1364,VALID,2,VALID,0.848828,
2016-10-06, 16:53:04,VALID,918.326,VALID,0,VALID,68.2677,VALID,638.523,VALID,25.0778,VALID,331,VALID,0.00195313,
2016-10-06, 16:54:04,VALID,918.326,VALID,0,VALID,68.626,VALID,586.199,VALID,25.0974,VALID,226,VALID,0.316406,
2016-10-06, 16:55:04,VALID,918.376,VALID,0,VALID,69.8229,VALID,500.676,VALID,25.1364,VALID,243,VALID,0,
2016-10-06, 16:56:04,VALID,918.339,VALID,0,VALID,69.5027,VALID,497.99,VALID,25.3512,VALID,320,VALID,0,
2016-10-06, 16:57:04,VALID,918.353,VALID,0,VALID,67.5892,VALID,347.894,VALID,25.4469,VALID,341,VALID,0,
2016-10-06, 16:58:04,VALID,918.383,VALID,0,VALID,66.5905,VALID,681.069,VALID,25.4488,VALID,223,VALID,0,
2016-10-06, 16:59:04,VALID,918.356,VALID,0,VALID,67.0784,VALID,675.375,VALID,25.566,VALID,233,VALID,0,
2016-10-06, 17:00:04,VALID,918.373,VALID,0,VALID,65.5309,VALID,703.31,VALID,25.7612,VALID,190,VALID,0,
2016-10-06, 17:01:04,VALID,918.399,VALID,0,VALID,64.3035,VALID,709.756,VALID,25.7808,VALID,249,VALID,0.0289063,
2016-10-06, 17:02:04,VALID,918.394,VALID,0,VALID,65.2259,VALID,936.779,VALID,25.7808,VALID,128,VALID,0.440234,
2016-10-06, 17:03:04,VALID,918.398,VALID,0,VALID,65.0811,VALID,430.839,VALID,25.8178,VALID,147,VALID,0,
2016-10-06, 17:04:04,VALID,918.395,VALID,0,VALID,64.4941,VALID,394.524,VALID,25.9174,VALID,22,VALID,0.422656,
2016-10-06, 17:05:04,VALID,918.417,VALID,0,VALID,66.865,VALID,370.887,VALID,25.8804,VALID,354,VALID,0,
2016-10-06, 17:06:04,VALID,918.423,VALID,0,VALID,66.56,VALID,353.481,VALID,25.8393,VALID,28,VALID,0.853516,
2016-10-06, 17:07:04,VALID,918.422,VALID,0,VALID,65.0354,VALID,331.993,VALID,25.6831,VALID,6,VALID,1.64961,
2016-10-06, 17:08:04,VALID,918.412,VALID,0,VALID,66.4609,VALID,310.505,VALID,25.4293,VALID,28,VALID,0.670313,
2016-10-06, 17:09:04,VALID,918.461,VALID,0,VALID,67.4977,VALID,325.117,VALID,25.234,VALID,18,VALID,1.26641,
2016-10-06, 17:10:04,VALID,918.493,VALID,0,VALID,67.2614,VALID,331.134,VALID,25.1169,VALID,13,VALID,0.616406,
2016-10-06, 17:11:04,VALID,918.491,VALID,0,VALID,66.5372,VALID,320.175,VALID,25.0974,VALID,292,VALID,0,
2016-10-06, 17:12:04,VALID,918.525,VALID,0,VALID,67.2157,VALID,338.547,VALID,25.0778,VALID,244,VALID,0,
2016-10-06, 17:13:04,VALID,918.551,VALID,0,VALID,67.0861,VALID,390.978,VALID,25.0778,VALID,141,VALID,0,
2016-10-06, 17:14:04,VALID,918.484,VALID,0,VALID,67.6349,VALID,486.494,VALID,25.0583,VALID,351,VALID,0.408984,
2016-10-06, 17:15:04,VALID,918.522,VALID,0,VALID,68.5498,VALID,483.485,VALID,25.0798,VALID,303,VALID,0.247656,
2016-10-06, 17:16:04,VALID,918.527,VALID,0,VALID,66.4,VALID,396.995,VALID,25.0798,VALID,305,VALID,0,
2016-10-06, 17:17:04,VALID,918.563,VALID,0,VALID,68.9157,VALID,384.639,VALID,25.1188,VALID,343,VALID,0,
2016-10-06, 17:18:04,VALID,918.558,VALID,0,VALID,67.8103,VALID,360.573,VALID,25.1774,VALID,171,VALID,0.00703125,
2016-10-06, 17:19:04,VALID,918.55,VALID,0,VALID,68.5955,VALID,332.101,VALID,25.3141,VALID,90,VALID,0.0371094,
2016-10-06, 17:20:04,VALID,918.565,VALID,0,VALID,64.9286,VALID,280.636,VALID,25.3707,VALID,314,VALID,0.0976563,
2016-10-06, 17:21:04,VALID,918.59,VALID,0,VALID,66.8192,VALID,250.338,VALID,25.2926,VALID,306,VALID,0,
2016-10-06, 17:22:04,VALID,918.613,VALID,0,VALID,65.7901,VALID,234.437,VALID,25.2926,VALID,24,VALID,0,
2016-10-06, 17:23:04,VALID,918.64,VALID,0,VALID,65.2717,VALID,238.304,VALID,25.234,VALID,262,VALID,1.12812,
2016-10-06, 17:24:04,VALID,918.678,VALID,0,VALID,66.6363,VALID,248.189,VALID,25.1598,VALID,264,VALID,0,
2016-10-06, 17:25:04,VALID,918.646,VALID,0,VALID,66.0645,VALID,254.743,VALID,25.0212,VALID,60,VALID,0.544141,
2016-10-06, 17:26:04,VALID,918.757,VALID,0,VALID,68.2372,VALID,270.752,VALID,24.904,VALID,4,VALID,0,
2016-10-06, 17:27:04,VALID,918.719,VALID,0,VALID,68.4735,VALID,289.984,VALID,24.9236,VALID,30,VALID,0,
2016-10-06, 17:28:04,VALID,918.718,VALID,0,VALID,68.8242,VALID,318.778,VALID,24.8455,VALID,28,VALID,2.07383,
2016-10-06, 17:29:04,VALID,918.713,VALID,0,VALID,68.8852,VALID,343.167,VALID,24.865,VALID,274,VALID,0,
2016-10-06, 17:30:04,VALID,918.695,VALID,0,VALID,70.3108,VALID,326.729,VALID,24.865,VALID,16,VALID,0.665625,
2016-10-06, 17:31:04,VALID,918.742,VALID,0,VALID,68.9233,VALID,323.29,VALID,24.8259,VALID,228,VALID,0.0078125,
2016-10-06, 17:32:04,VALID,918.751,VALID,0,VALID,67.8941,VALID,315.555,VALID,24.8669,VALID,315,VALID,0,
2016-10-06, 17:33:04,VALID,918.762,VALID,0,VALID,69.0224,VALID,307.389,VALID,24.8864,VALID,27,VALID,0,
2016-10-06, 17:34:04,VALID,918.776,VALID,0,VALID,69.6018,VALID,257.322,VALID,24.8436,VALID,8,VALID,1.28437,
2016-10-06, 17:35:04,VALID,918.743,VALID,0,VALID,69.4188,VALID,240.668,VALID,24.7088,VALID,346,VALID,0.535937,
2016-10-06, 17:36:04,VALID,918.7,VALID,0,VALID,69.6018,VALID,226.808,VALID,24.6893,VALID,239,VALID,0.270312,
2016-10-06, 17:37:04,VALID,918.727,VALID,0,VALID,69.739,VALID,209.833,VALID,24.6874,VALID,11,VALID,1.3625,
2016-10-06, 17:38:04,VALID,918.721,VALID,0,VALID,69.4188,VALID,195.221,VALID,24.7088,VALID,20,VALID,0.128516,
2016-10-06, 17:39:04,VALID,918.752,VALID,0,VALID,69.3273,VALID,192.212,VALID,24.7479,VALID,16,VALID,0,
2016-10-06, 17:40:04,VALID,918.701,VALID,0,VALID,68.1228,VALID,195.865,VALID,24.8083,VALID,24,VALID,1.59961,
2016-10-06, 17:41:04,VALID,918.733,VALID,0,VALID,69.5713,VALID,201.667,VALID,24.746,VALID,360,VALID,0.287109,
2016-10-06, 17:42:04,VALID,918.685,VALID,0,VALID,69.678,VALID,204.89,VALID,24.6112,VALID,358,VALID,0.0289063,
2016-10-06, 17:43:04,VALID,918.701,VALID,0,VALID,70.2879,VALID,206.18,VALID,24.416,VALID,21,VALID,0.0984375,
2016-10-06, 17:44:04,VALID,918.639,VALID,0,VALID,69.5332,VALID,200.485,VALID,24.3965,VALID,57,VALID,0,
2016-10-06, 17:45:04,VALID,918.721,VALID,0,VALID,70.3946,VALID,183.08,VALID,24.3788,VALID,51,VALID,0.710938,
2016-10-06, 17:46:04,VALID,918.696,VALID,0,VALID,70.57,VALID,162.988,VALID,24.4355,VALID,52,VALID,0,
2016-10-06, 17:47:04,VALID,918.649,VALID,0,VALID,70.5014,VALID,151.814,VALID,24.4569,VALID,107,VALID,0,
2016-10-06, 17:48:04,VALID,918.654,VALID,0,VALID,71.9879,VALID,150.095,VALID,24.4959,VALID,8,VALID,0,
2016-10-06, 17:49:04,VALID,918.676,VALID,0,VALID,72.1251,VALID,154.285,VALID,24.5545,VALID,13,VALID,0.773047,
2016-10-06, 17:50:04,VALID,918.701,VALID,0,VALID,70.2955,VALID,166.534,VALID,24.5545,VALID,42,VALID,0,
2016-10-06, 17:51:04,VALID,918.687,VALID,0,VALID,69.4265,VALID,186.303,VALID,24.5935,VALID,40,VALID,0,
2016-10-06, 17:52:04,VALID,918.703,VALID,0,VALID,69.0072,VALID,211.981,VALID,24.6326,VALID,7,VALID,0,
2016-10-06, 17:53:04,VALID,918.714,VALID,0,VALID,69.9067,VALID,223.585,VALID,24.6735,VALID,14,VALID,0.20625,
2016-10-06, 17:54:04,VALID,918.695,VALID,0,VALID,70.387,VALID,233.577,VALID,24.6521,VALID,349,VALID,0,
2016-10-06, 17:55:04,VALID,918.702,VALID,0,VALID,70.2727,VALID,261.404,VALID,24.6326,VALID,125,VALID,0,
2016-10-06, 17:56:04,VALID,918.694,VALID,0,VALID,68.2829,VALID,238.842,VALID,24.6345,VALID,271,VALID,0,
2016-10-06, 17:57:04,VALID,918.737,VALID,0,VALID,70.6767,VALID,231.536,VALID,24.6131,VALID,23,VALID,0,
2016-10-06, 17:58:04,VALID,918.621,VALID,0,VALID,69.5865,VALID,213.271,VALID,24.5954,VALID,35,VALID,0.303125,
2016-10-06, 17:59:04,VALID,918.734,VALID,0,VALID,69.861,VALID,199.196,VALID,24.4959,VALID,75,VALID,0.25625,
2016-10-06, 18:00:04,VALID,918.737,VALID,0,VALID,71.3399,VALID,186.518,VALID,24.5155,VALID,46,VALID,0.184766,
2016-10-06, 18:01:04,VALID,918.733,VALID,0,VALID,71.805,VALID,186.625,VALID,24.5545,VALID,44,VALID,0,
2016-10-06, 18:02:04,VALID,918.726,VALID,0,VALID,71.2484,VALID,197.155,VALID,24.6131,VALID,43,VALID,0,
2016-10-06, 18:03:04,VALID,918.727,VALID,0,VALID,72.5673,VALID,211.874,VALID,24.6326,VALID,42,VALID,0,
2016-10-06, 18:04:04,VALID,918.745,VALID,0,VALID,70.2269,VALID,226.164,VALID,24.6521,VALID,127,VALID,0,
2016-10-06, 18:05:04,VALID,918.721,VALID,0,VALID,70.4861,VALID,231.321,VALID,24.7107,VALID,170,VALID,0,
2016-10-06, 18:06:04,VALID,918.699,VALID,0,VALID,70.3794,VALID,260.545,VALID,24.7302,VALID,198,VALID,0,
2016-10-06, 18:07:04,VALID,918.67,VALID,0,VALID,70.5928,VALID,323.076,VALID,24.7888,VALID,4,VALID,0,